Overview Statistics Trail Chart Weather Telemetry Raw packets
 

This is the latest recevied weather packets stored in our database for station/object KD7CIH. If no packets are shown the sender has not sent any weather packets the latest 10 day(s).

<< 70 71 72 73 74 75 76 >>
Time Temp. Humidity Pressure Rain* Wind** Luminosity Snow
1788196836 18.89° C 46% 1018.2 hPa 0 mm - - -
1788196534 18.33° C 47% 1018.3 hPa 0 mm - - -
1788196234 18.33° C 48% 1018.3 hPa 0 mm - - -
1788195934 18.33° C 46% 1018.4 hPa 0 mm - - -
1788195635 18.33° C 47% 1018.4 hPa 0 mm - - -
1788195333 17.78° C 50% 1018.4 hPa 0 mm - - -
1788195033 17.78° C 49% 1018.4 hPa 0 mm - - -
1788194733 17.22° C 52% 1018.6 hPa 0 mm - - -
1788194561 17.22° C 51% 1018.6 hPa 0 mm - - -
1788194135 17.22° C 53% 1018.4 hPa 0 mm - - -
1788193849 17.22° C 54% 1018.4 hPa 0 mm - - -
1788193535 16.67° C 56% 1018.3 hPa 0 mm - - -
1788193234 16.67° C 56% 1018.3 hPa 0 mm - - -
1788192933 16.11° C 58% 1018.3 hPa 0 mm - - -
1788192634 15.56° C 60% 1018.3 hPa 0 mm - - -
1788192335 15.56° C 61% 1018.3 hPa 0 mm - - -
1788192034 15° C 61% 1018.3 hPa 0 mm - - -
1788191733 15° C 61% 1018.2 hPa 0 mm - - -
1788191433 15° C 64% 1018.3 hPa 0 mm - - -
1788191138 15° C 65% 1018.4 hPa 0 mm - - -
1788190833 14.44° C 66% 1018.4 hPa 0 mm - - -
1788190534 14.44° C 66% 1018.3 hPa 0 mm - - -
1788190233 13.89° C 66% 1018.4 hPa 0 mm - - -
1788189935 13.33° C 68% 1018.4 hPa 0 mm - - -
1788189633 13.33° C 69% 1018.6 hPa 0 mm - - -

* Rain latest hour (hover to see other rain measurements)
** Current wind speed in m/s (hover to see current wind gust speed)